| time (UTC) | temp C | wind direction | speed KPH | gust KPH | rain 1hr cm | rain 24hr cm | rain mn cm | humidity % | barometer mb |
| 20260505041555 | 11 | 278 | 0.0 | 3.2 | 0.05 | 0.08 | 0.08 | 93 | 1015.5 |
| 20260505040059 | 11 | 305 | 0.0 | 1.6 | 0.03 | 0.05 | 0.05 | 92 | 1015.3 |
| 20260505034552 | 11 | 261 | 0.0 | 1.6 | 0.05 | 0.05 | 0.05 | 91 | 1014.5 |
| 20260505033053 | 11 | 261 | 0.0 | 3.2 | 0.03 | 0.03 | 0.03 | 89 | 1014.1 |
| 20260505031550 | 11 | 290 | 0.0 | 8.0 | 0.03 | 0.03 | 0.03 | 87 | 1013.9 |
| 20260505030051 | 11 | 271 | 1.6 | 9.7 | 0.00 | 0.00 | 0.00 | 87 | 1014.1 |
| 20260505024606 | 12 | 257 | 3.2 | 9.7 | 0.00 | 0.00 | 0.00 | 86 | 1014.2 |
| 20260505023050 | 12 | 274 | 1.6 | 8.0 | 0.00 | 0.00 | 0.00 | 87 | 1014.3 |
| 20260505021603 | 12 | 280 | 1.6 | 12.9 | 0.00 | 0.00 | 0.00 | 87 | 1013.9 |
| 20260505020049 | 12 | 330 | 3.2 | 6.4 | 0.00 | 0.00 | 0.00 | 88 | 1014.1 |
| 20260505014548 | 12 | 276 | 1.6 | 9.7 | 0.00 | 0.00 | 0.00 | 88 | 1014.1 |
| 20260505013048 | 12 | 300 | 1.6 | 9.7 | 0.00 | 0.00 | 0.00 | 87 | 1014.4 |
| 20260505011554 | 13 | 288 | 0.0 | 4.8 | 0.00 | 0.00 | 0.00 | 86 | 1014.4 |
| 20260505010047 | 13 | 316 | 1.6 | 8.0 | 0.00 | 0.00 | 0.00 | 85 | 1014.4 |
| 20260505004548 | 13 | 289 | 3.2 | 8.0 | 0.00 | 0.00 | 0.00 | 82 | 1014.5 |
| 20260505003046 | 13 | 276 | 3.2 | 8.0 | 0.00 | 0.00 | 0.00 | 80 | 1014.6 |
| 20260505001546 | 14 | 269 | 1.6 | 6.4 | 0.00 | 0.00 | 0.00 | 82 | 1014.5 |
| 20260505000046 | 14 | 274 | 3.2 | 8.0 | 0.00 | 0.00 | 0.00 | 78 | 1014.4 |
| 20260504234544 | 15 | 284 | 1.6 | 4.8 | 0.00 | 0.00 | 0.00 | 76 | 1014.3 |
| 20260504233056 | 15 | 297 | 1.6 | 6.4 | 0.00 | 0.00 | 0.00 | 74 | 1014.3 |
| 20260504231544 | 15 | 293 | 3.2 | 9.7 | 0.00 | 0.00 | 0.00 | 72 | 1014.1 |
| 20260504230044 | 16 | 46 | 0.0 | 3.2 | 0.00 | 0.00 | 0.00 | 73 | 1014.2 |
| 20260504224543 | 16 | 238 | 1.6 | 4.8 | 0.00 | 0.00 | 0.00 | 74 | 1014.3 |
| 20260504223049 | 16 | 305 | 1.6 | 8.0 | 0.00 | 0.00 | 0.00 | 73 | 1014.3 |
| 20260504221547 | 16 | 339 | 3.2 | 11.3 | 0.00 | 0.00 | 0.00 | 72 | 1014.4 |
| 20260504220101 | 16 | 304 | 1.6 | 9.7 | 0.00 | 0.00 | 0.00 | 72 | 1014.4 |
| 20260504214543 | 17 | 129 | 3.2 | 11.3 | 0.00 | 0.00 | 0.00 | 70 | 1014.4 |
| 20260504213040 | 17 | 15 | 1.6 | 8.0 | 0.00 | 0.00 | 0.00 | 71 | 1014.3 |
| 20260504211539 | 16 | 288 | 1.6 | 8.0 | 0.00 | 0.00 | 0.00 | 71 | 1014.3 |
| 20260504210039 | 16 | 318 | 1.6 | 9.7 | 0.00 | 0.00 | 0.00 | 71 | 1014.5 |
| 20260504204556 | 16 | 168 | 3.2 | 8.0 | 0.00 | 0.00 | 0.00 | 71 | 1014.5 |
| 20260504203039 | 16 | 327 | 0.0 | 8.0 | 0.00 | 0.00 | 0.00 | 72 | 1014.4 |
| 20260504201537 | 16 | 74 | 3.2 | 8.0 | 0.00 | 0.00 | 0.00 | 73 | 1014.4 |
| 20260504200042 | 16 | 283 | 3.2 | 12.9 | 0.00 | 0.00 | 0.00 | 71 | 1014.6 |
| 20260504194540 | 16 | 308 | 3.2 | 9.7 | 0.00 | 0.00 | 0.00 | 70 | 1014.5 |
| 20260504193036 | 16 | 313 | 3.2 | 6.4 | 0.00 | 0.00 | 0.00 | 66 | 1014.3 |
| 20260504191538 | 17 | 289 | 0.0 | 6.4 | 0.00 | 0.00 | 0.00 | 65 | 1014.4 |
| 20260504190037 | 18 | 114 | 1.6 | 4.8 | 0.00 | 0.00 | 0.00 | 64 | 1014.5 |
| 20260504184534 | 17 | 70 | 0.0 | 3.2 | 0.00 | 0.00 | 0.00 | 69 | 1014.6 |
| 20260504183029 | 16 | 97 | 0.0 | 6.4 | 0.00 | 0.00 | 0.00 | 71 | 1014.5 |
| 20260504181526 | 16 | 345 | 0.0 | 6.4 | 0.00 | 0.00 | 0.00 | 69 | 1014.5 |
| 20260504180025 | 17 | 46 | 3.2 | 6.4 | 0.00 | 0.00 | 0.00 | 69 | 1014.6 |
| 20260504174524 | 16 | 70 | 0.0 | 4.8 | 0.00 | 0.00 | 0.00 | 71 | 1014.4 |
| 20260504173022 | 16 | 39 | 1.6 | 6.4 | 0.00 | 0.00 | 0.00 | 74 | 1014.2 |
| 20260504171520 | 15 | 71 | 3.2 | 9.7 | 0.00 | 0.00 | 0.00 | 75 | 1014.3 |
| 20260504081541 | 8 | 13 | 0.0 | 0.0 | 0.00 | 0.00 | 0.00 | 94 | 1013.9 |
| 20260504050008 | 11 | 127 | 0.0 | 1.6 | 0.00 | 0.00 | 0.00 | 87 | 1013.6 |